• In Hungary
  • List of Countries
  • For 7 days
  • Water Temperature
  • Satellite Maps
  • Weather Map
  • News
  • Weather Widgets
  • user-avatar
    Login

    Hourly Weather Budapest

    Today, 17 August, Thursday

    Time Temperature Precipitation Wind Pressure Humidity
    00:00 +24°C° 0 mm 1 mps 755 mmHg 53%
    01:00 +23°C° 0 mm 2 mps 755 mmHg 58%
    02:00 +23°C° 0 mm 2 mps 755 mmHg 60%
    03:00 +21°C° 0 mm 2 mps 755 mmHg 62%
    04:00 +21°C° 0 mm 2 mps 755 mmHg 64%
    05:00 +23°C° 0 mm 2 mps 755 mmHg 60%
    06:00 +24°C° 0 mm 2 mps 755 mmHg 56%
    07:00 +25°C° 0 mm 2 mps 756 mmHg 51%
    08:00 +28°C° 0 mm 2 mps 756 mmHg 45%
    09:00 +30°C° 0 mm 2 mps 755 mmHg 39%
    10:00 +32°C° 0 mm 2 mps 755 mmHg 33%
    11:00 +33°C° 0 mm 1 mps 755 mmHg 30%
    12:00 +34°C° 0 mm 1 mps 755 mmHg 27%
    13:00 +35°C° 0 mm 1 mps 754 mmHg 24%
    14:00 +35°C° 0 mm 1 mps 754 mmHg 24%
    15:00 +35°C° 0 mm 1 mps 754 mmHg 23%
    16:00 +35°C° 0 mm 1 mps 753 mmHg 23%
    17:00 +34°C° 0 mm 1 mps 753 mmHg 25%
    18:00 +32°C° 0 mm 1 mps 754 mmHg 28%
    19:00 +30°C° 0 mm 1 mps 754 mmHg 31%
    20:00 +29°C° 0 mm 1 mps 754 mmHg 32%
    21:00 +28°C° 0 mm 1 mps 754 mmHg 34%
    22:00 +27°C° 0 mm 1 mps 754 mmHg 36%
    23:00 +26°C° 0 mm 1 mps 754 mmHg 38%

    Tomorrow, 18 August, Friday

    Time Temperature Precipitation Wind Pressure Humidity
    00:00 +26°C° 0 mm 1 mps 754 mmHg 40%
    01:00 +25°C° 0 mm 1 mps 754 mmHg 41%
    02:00 +25°C° 0 mm 1 mps 754 mmHg 43%
    03:00 +24°C° 0 mm 1 mps 754 mmHg 44%
    04:00 +24°C° 0 mm 1 mps 754 mmHg 45%
    05:00 +25°C° 0 mm 1 mps 754 mmHg 43%
    06:00 +26°C° 0 mm 1 mps 755 mmHg 41%
    07:00 +28°C° 0 mm 1 mps 755 mmHg 38%
    08:00 +30°C° 0 mm 1 mps 755 mmHg 35%
    09:00 +32°C° 0 mm 1 mps 755 mmHg 31%
    10:00 +34°C° 0 mm 1 mps 755 mmHg 27%
    11:00 +35°C° 0 mm 1 mps 754 mmHg 25%
    12:00 +36°C° 0 mm 1 mps 754 mmHg 22%
    13:00 +37°C° 0 mm 1 mps 753 mmHg 20%
    14:00 +37°C° 0 mm 1 mps 753 mmHg 20%
    15:00 +37°C° 0 mm 1 mps 752 mmHg 19%
    16:00 +38°C° 0 mm 2 mps 752 mmHg 19%
    17:00 +36°C° 0 mm 2 mps 752 mmHg 21%
    18:00 +34°C° 0 mm 2 mps 752 mmHg 24%
    19:00 +31°C° 0 mm 2 mps 752 mmHg 26%
    20:00 +30°C° 0 mm 3 mps 752 mmHg 29%
    21:00 +29°C° 0 mm 3 mps 752 mmHg 31%
    22:00 +28°C° 0 mm 3 mps 752 mmHg 33%
    23:00 +28°C° 0 mm 3 mps 752 mmHg 35%

    Day after tomorrow, 19 August, Saturday

    Time Temperature Precipitation Wind Pressure Humidity
    00:00 +27°C° 0 mm 2 mps 751 mmHg 37%
    01:00 +26°C° 0 mm 2 mps 751 mmHg 39%
    02:00 +26°C° 0 mm 2 mps 751 mmHg 41%
    03:00 +25°C° 0 mm 2 mps 751 mmHg 42%
    04:00 +24°C° 0 mm 1 mps 751 mmHg 44%
    05:00 +25°C° 0 mm 2 mps 751 mmHg 43%
    06:00 +26°C° 0 mm 2 mps 752 mmHg 42%
    07:00 +27°C° 0 mm 2 mps 752 mmHg 41%
    08:00 +29°C° 0 mm 2 mps 752 mmHg 38%
    09:00 +31°C° 0 mm 3 mps 752 mmHg 35%
    10:00 +34°C° 0 mm 3 mps 752 mmHg 32%
    11:00 +35°C° 0 mm 3 mps 752 mmHg 30%
    12:00 +35°C° 0 mm 3 mps 751 mmHg 29%
    13:00 +36°C° 0 mm 4 mps 751 mmHg 28%
    14:00 +35°C° 0 mm 5 mps 751 mmHg 33%
    15:00 +33°C° 0 mm 6 mps 751 mmHg 38%
    16:00 +30°C° 0 mm 7 mps 751 mmHg 43%
    17:00 +28°C° 0.3 mm 7 mps 751 mmHg 50%
    18:00 +26°C° 0.3 mm 7 mps 751 mmHg 58%
    19:00 +22°C° 0.3 mm 7 mps 752 mmHg 65%
    20:00 +22°C° 0.8 mm 7 mps 752 mmHg 69%
    21:00 +21°C° 0.8 mm 6 mps 752 mmHg 73%
    22:00 +21°C° 0.8 mm 6 mps 753 mmHg 76%
    23:00 +20°C° 1 mm 5 mps 753 mmHg 79%

    20 August, Sunday

    Time Temperature Precipitation Wind Pressure Humidity
    00:00 +20°C° 1 mm 5 mps 753 mmHg 81%
    01:00 +20°C° 1 mm 4 mps 753 mmHg 83%
    02:00 +19°C° 0.8 mm 4 mps 753 mmHg 84%
    03:00 +19°C° 0.8 mm 4 mps 753 mmHg 84%
    04:00 +19°C° 0.8 mm 4 mps 753 mmHg 85%
    05:00 +19°C° 0.9 mm 4 mps 753 mmHg 84%
    06:00 +19°C° 0.9 mm 4 mps 754 mmHg 84%
    07:00 +18°C° 0.9 mm 4 mps 754 mmHg 83%
    08:00 +19°C° 0.5 mm 4 mps 754 mmHg 80%
    09:00 +20°C° 0.5 mm 5 mps 754 mmHg 76%
    10:00 +20°C° 0.5 mm 5 mps 754 mmHg 73%
    11:00 +21°C° 0.1 mm 5 mps 754 mmHg 68%
    12:00 +22°C° 0.1 mm 5 mps 754 mmHg 62%
    13:00 +23°C° 0.1 mm 5 mps 754 mmHg 57%
    14:00 +23°C° 0 mm 5 mps 754 mmHg 55%
    15:00 +25°C° 0 mm 4 mps 754 mmHg 52%
    16:00 +25°C° 0 mm 4 mps 754 mmHg 50%
    17:00 +24°C° 0 mm 3 mps 755 mmHg 53%
    18:00 +22°C° 0 mm 3 mps 755 mmHg 57%
    19:00 +21°C° 0 mm 2 mps 755 mmHg 60%
    20:00 +20°C° 0 mm 2 mps 755 mmHg 63%
    21:00 +20°C° 0 mm 1 mps 756 mmHg 66%
    22:00 +19°C° 0 mm 1 mps 756 mmHg 69%
    23:00 +19°C° 0 mm 1 mps 756 mmHg 70%

    21 August, Monday

    Time Temperature Precipitation Wind Pressure Humidity
    00:00 +17°C° 0 mm 2 mps 756 mmHg 70%
    01:00 +17°C° 0 mm 2 mps 756 mmHg 71%
    02:00 +17°C° 0 mm 3 mps 756 mmHg 71%
    03:00 +16°C° 0 mm 3 mps 756 mmHg 71%
    04:00 +16°C° 0 mm 3 mps 756 mmHg 70%
    05:00 +17°C° 0 mm 3 mps 756 mmHg 67%
    06:00 +17°C° 0 mm 4 mps 756 mmHg 64%
    07:00 +18°C° 0 mm 4 mps 756 mmHg 60%
    08:00 +20°C° 0 mm 4 mps 756 mmHg 54%
    09:00 +22°C° 0 mm 4 mps 756 mmHg 48%
    10:00 +23°C° 0 mm 4 mps 756 mmHg 42%
    11:00 +25°C° 0 mm 4 mps 756 mmHg 38%
    12:00 +26°C° 0 mm 4 mps 755 mmHg 35%
    13:00 +27°C° 0 mm 4 mps 755 mmHg 32%
    14:00 +27°C° 0 mm 4 mps 755 mmHg 32%
    15:00 +27°C° 0 mm 4 mps 755 mmHg 31%
    16:00 +27°C° 0 mm 5 mps 755 mmHg 31%
    17:00 +26°C° 0 mm 4 mps 755 mmHg 35%
    18:00 +24°C° 0 mm 3 mps 755 mmHg 39%
    19:00 +22°C° 0 mm 3 mps 755 mmHg 43%
    20:00 +21°C° 0 mm 3 mps 755 mmHg 47%
    21:00 +20°C° 0 mm 3 mps 755 mmHg 50%
    22:00 +19°C° 0 mm 3 mps 756 mmHg 54%
    23:00 +19°C° 0 mm 2 mps 756 mmHg 57%

    22 August, Tuesday

    Time Temperature Precipitation Wind Pressure Humidity
    00:00 +18°C° 0 mm 2 mps 756 mmHg 59%
    01:00 +17°C° 0 mm 2 mps 755 mmHg 62%
    02:00 +17°C° 0 mm 2 mps 755 mmHg 64%
    03:00 +17°C° 0 mm 2 mps 755 mmHg 66%
    04:00 +16°C° 0 mm 1 mps 755 mmHg 68%
    05:00 +18°C° 0 mm 1 mps 755 mmHg 64%
    06:00 +19°C° 0 mm 1 mps 755 mmHg 60%
    07:00 +21°C° 0 mm 1 mps 756 mmHg 56%
    08:00 +22°C° 0 mm 1 mps 755 mmHg 50%
    09:00 +24°C° 0 mm 1 mps 755 mmHg 43%
    10:00 +26°C° 0 mm 2 mps 755 mmHg 37%
    11:00 +27°C° 0 mm 2 mps 754 mmHg 34%
    12:00 +28°C° 0 mm 2 mps 754 mmHg 32%
    13:00 +29°C° 0 mm 2 mps 753 mmHg 29%
    14:00 +29°C° 0 mm 2 mps 753 mmHg 29%
    15:00 +30°C° 0 mm 2 mps 752 mmHg 29%
    16:00 +30°C° 0 mm 2 mps 752 mmHg 29%
    17:00 +29°C° 0 mm 2 mps 752 mmHg 32%
    18:00 +27°C° 0 mm 2 mps 751 mmHg 35%
    19:00 +26°C° 0 mm 2 mps 751 mmHg 39%
    20:00 +25°C° 0 mm 2 mps 751 mmHg 41%
    21:00 +24°C° 0 mm 2 mps 751 mmHg 42%
    22:00 +22°C° 0 mm 3 mps 751 mmHg 44%
    23:00 +23°C° 0 mm 2 mps 751 mmHg 46%
    Show more